• In Romania
  • List of Countries
  • For 7 days
  • Water Temperature
  • Satellite Maps
  • Weather Map
  • Weather Widgets
  • user-avatar
    Login

    Hourly Weather Ogarevo

    Today, 20 July, Friday

    Time Temperature Precipitation Wind Pressure Humidity
    00:00 +19°C° 0 mm 1 mps 729 mmHg 96%
    01:00 +18°C° 0 mm 1 mps 729 mmHg 96%
    02:00 +18°C° 0 mm 1 mps 729 mmHg 96%
    03:00 +18°C° 0 mm 1 mps 729 mmHg 96%
    04:00 +18°C° 0 mm 1 mps 730 mmHg 96%
    05:00 +19°C° 0 mm 1 mps 730 mmHg 96%
    06:00 +19°C° 0 mm 1 mps 730 mmHg 96%
    07:00 +19°C° 0 mm 2 mps 730 mmHg 92%
    08:00 +21°C° 0 mm 2 mps 731 mmHg 88%
    09:00 +23°C° 0 mm 2 mps 731 mmHg 84%
    10:00 +24°C° 0.4 mm 2 mps 731 mmHg 81%
    11:00 +25°C° 0.4 mm 2 mps 731 mmHg 78%
    12:00 +26°C° 0.4 mm 2 mps 731 mmHg 75%
    13:00 +26°C° 1.3 mm 2 mps 731 mmHg 74%
    14:00 +27°C° 1.3 mm 3 mps 731 mmHg 73%
    15:00 +27°C° 1.3 mm 3 mps 731 mmHg 72%
    16:00 +27°C° 0.8 mm 2 mps 731 mmHg 74%
    17:00 +27°C° 0.8 mm 2 mps 731 mmHg 76%
    18:00 +27°C° 0.8 mm 2 mps 731 mmHg 79%
    19:00 +25°C° 0.2 mm 2 mps 731 mmHg 82%
    20:00 +24°C° 0.2 mm 2 mps 731 mmHg 85%
    21:00 +21°C° 0.2 mm 2 mps 731 mmHg 89%
    22:00 +21°C° 0.4 mm 2 mps 731 mmHg 90%
    23:00 +20°C° 0.4 mm 2 mps 731 mmHg 91%

    Tomorrow, 21 July, Saturday

    Time Temperature Precipitation Wind Pressure Humidity
    00:00 +21°C° 0.4 mm 1 mps 731 mmHg 92%
    01:00 +21°C° 0.3 mm 1 mps 731 mmHg 92%
    02:00 +21°C° 0.3 mm 1 mps 731 mmHg 92%
    03:00 +20°C° 0.3 mm 1 mps 731 mmHg 93%
    04:00 +21°C° 0.5 mm 1 mps 732 mmHg 94%
    05:00 +21°C° 0.5 mm 1 mps 732 mmHg 94%
    06:00 +20°C° 0.5 mm 2 mps 732 mmHg 95%
    07:00 +21°C° 0.6 mm 2 mps 732 mmHg 92%
    08:00 +23°C° 0.6 mm 2 mps 732 mmHg 88%
    09:00 +24°C° 0.6 mm 2 mps 732 mmHg 84%
    10:00 +25°C° 2 mm 2 mps 732 mmHg 80%
    11:00 +26°C° 2 mm 1 mps 732 mmHg 76%
    12:00 +27°C° 2 mm 1 mps 732 mmHg 72%
    13:00 +27°C° 1.2 mm 1 mps 732 mmHg 71%
    14:00 +27°C° 1.2 mm 1 mps 732 mmHg 71%
    15:00 +27°C° 1.2 mm 2 mps 732 mmHg 70%
    16:00 +27°C° 0.7 mm 2 mps 731 mmHg 73%
    17:00 +27°C° 0.7 mm 1 mps 731 mmHg 75%
    18:00 +27°C° 0.7 mm 1 mps 731 mmHg 77%
    19:00 +26°C° 0.5 mm 2 mps 731 mmHg 81%
    20:00 +24°C° 0.5 mm 2 mps 731 mmHg 85%
    21:00 +23°C° 0.5 mm 2 mps 731 mmHg 89%
    22:00 +21°C° 0.2 mm 2 mps 731 mmHg 90%
    23:00 +21°C° 0.2 mm 2 mps 731 mmHg 92%

    Day after tomorrow, 22 July, Sunday

    Time Temperature Precipitation Wind Pressure Humidity
    00:00 +21°C° 0.2 mm 2 mps 731 mmHg 93%
    01:00 +20°C° 0.1 mm 2 mps 731 mmHg 94%
    02:00 +20°C° 0.1 mm 2 mps 731 mmHg 95%
    03:00 +19°C° 0.1 mm 2 mps 731 mmHg 96%
    04:00 +20°C° 0.2 mm 2 mps 731 mmHg 96%
    05:00 +20°C° 0.2 mm 2 mps 732 mmHg 96%
    06:00 +20°C° 0.2 mm 2 mps 732 mmHg 96%
    07:00 +21°C° 0.1 mm 2 mps 732 mmHg 94%
    08:00 +23°C° 0.1 mm 2 mps 732 mmHg 92%
    09:00 +24°C° 0.1 mm 2 mps 732 mmHg 89%
    10:00 +24°C° 0.1 mm 2 mps 732 mmHg 86%
    11:00 +25°C° 0.1 mm 2 mps 732 mmHg 83%
    12:00 +26°C° 0.1 mm 2 mps 732 mmHg 80%
    13:00 +26°C° 0.3 mm 2 mps 732 mmHg 78%
    14:00 +27°C° 0.3 mm 2 mps 732 mmHg 76%
    15:00 +28°C° 0.3 mm 2 mps 731 mmHg 74%
    16:00 +27°C° 0.9 mm 3 mps 731 mmHg 76%
    17:00 +27°C° 0.9 mm 3 mps 731 mmHg 79%
    18:00 +27°C° 0.9 mm 3 mps 731 mmHg 81%
    19:00 +25°C° 1.2 mm 3 mps 731 mmHg 85%
    20:00 +24°C° 1.2 mm 3 mps 731 mmHg 88%
    21:00 +22°C° 1.2 mm 3 mps 731 mmHg 92%
    22:00 +22°C° 0.5 mm 3 mps 731 mmHg 92%
    23:00 +21°C° 0.5 mm 3 mps 731 mmHg 93%

    23 July, Monday

    Time Temperature Precipitation Wind Pressure Humidity
    00:00 +21°C° 0.5 mm 3 mps 731 mmHg 93%
    01:00 +21°C° 0.1 mm 3 mps 731 mmHg 94%
    02:00 +20°C° 0.1 mm 2 mps 731 mmHg 95%
    03:00 +20°C° 0.1 mm 2 mps 731 mmHg 96%
    04:00 +20°C° 0.3 mm 2 mps 731 mmHg 96%
    05:00 +20°C° 0.3 mm 2 mps 731 mmHg 96%
    06:00 +20°C° 0.3 mm 2 mps 731 mmHg 96%
    07:00 +21°C° 0 mm 2 mps 731 mmHg 94%
    08:00 +22°C° 0 mm 3 mps 732 mmHg 91%
    09:00 +24°C° 0 mm 3 mps 732 mmHg 88%
    10:00 +25°C° 0.7 mm 3 mps 732 mmHg 86%
    11:00 +25°C° 0.7 mm 3 mps 732 mmHg 83%
    12:00 +26°C° 0.7 mm 3 mps 732 mmHg 81%
    13:00 +26°C° 0.8 mm 3 mps 732 mmHg 80%
    14:00 +26°C° 0.8 mm 3 mps 732 mmHg 79%
    15:00 +26°C° 0.8 mm 3 mps 732 mmHg 78%
    16:00 +26°C° 0.3 mm 3 mps 732 mmHg 80%
    17:00 +26°C° 0.3 mm 3 mps 733 mmHg 82%
    18:00 +25°C° 0.3 mm 3 mps 733 mmHg 83%
    19:00 +24°C° 0.1 mm 3 mps 733 mmHg 87%
    20:00 +23°C° 0.1 mm 2 mps 733 mmHg 90%
    21:00 +21°C° 0.1 mm 2 mps 733 mmHg 93%
    22:00 +20°C° 0 mm 2 mps 733 mmHg 93%
    23:00 +19°C° 0 mm 2 mps 734 mmHg 93%

    24 July, Tuesday

    Time Temperature Precipitation Wind Pressure Humidity
    00:00 +19°C° 0 mm 2 mps 734 mmHg 93%
    01:00 +19°C° 0 mm 2 mps 734 mmHg 94%
    02:00 +18°C° 0 mm 2 mps 734 mmHg 94%
    03:00 +18°C° 0 mm 2 mps 734 mmHg 95%
    04:00 +18°C° 0 mm 2 mps 734 mmHg 94%
    05:00 +18°C° 0 mm 2 mps 735 mmHg 94%
    06:00 +18°C° 0 mm 2 mps 735 mmHg 94%
    07:00 +20°C° 0 mm 2 mps 735 mmHg 90%
    08:00 +21°C° 0 mm 2 mps 735 mmHg 86%
    09:00 +23°C° 0 mm 2 mps 736 mmHg 81%
    10:00 +24°C° 0 mm 2 mps 736 mmHg 78%
    11:00 +25°C° 0 mm 2 mps 736 mmHg 74%
    12:00 +26°C° 0 mm 2 mps 736 mmHg 70%
    13:00 +27°C° 0 mm 2 mps 736 mmHg 68%
    14:00 +28°C° 0 mm 2 mps 736 mmHg 65%
    15:00 +28°C° 0 mm 2 mps 736 mmHg 62%
    16:00 +28°C° 0.2 mm 2 mps 736 mmHg 67%
    17:00 +27°C° 0.2 mm 2 mps 736 mmHg 71%
    18:00 +27°C° 0.2 mm 3 mps 736 mmHg 75%
    19:00 +26°C° 0.2 mm 3 mps 736 mmHg 80%
    20:00 +24°C° 0.2 mm 3 mps 737 mmHg 85%
    21:00 +21°C° 0.2 mm 3 mps 737 mmHg 91%
    22:00 +21°C° 0.2 mm 3 mps 737 mmHg 92%
    23:00 +21°C° 0.2 mm 3 mps 737 mmHg 93%

    25 July, Wednesday

    Time Temperature Precipitation Wind Pressure Humidity
    00:00 +20°C° 0.2 mm 2 mps 737 mmHg 94%
    01:00 +20°C° 0.5 mm 3 mps 737 mmHg 94%
    02:00 +20°C° 0.5 mm 3 mps 737 mmHg 94%
    03:00 +20°C° 0.5 mm 4 mps 738 mmHg 93%
    04:00 +19°C° 0.8 mm 3 mps 738 mmHg 93%
    05:00 +19°C° 0.8 mm 3 mps 738 mmHg 93%
    06:00 +19°C° 0.8 mm 3 mps 738 mmHg 93%
    07:00 +19°C° 0.6 mm 3 mps 738 mmHg 93%
    08:00 +19°C° 0.6 mm 3 mps 738 mmHg 92%
    09:00 +19°C° 0.6 mm 3 mps 738 mmHg 91%
    10:00 +19°C° 0.6 mm 3 mps 738 mmHg 91%
    11:00 +19°C° 0.6 mm 4 mps 738 mmHg 91%
    12:00 +19°C° 0.6 mm 5 mps 738 mmHg 90%
    13:00 +19°C° 0.4 mm 5 mps 738 mmHg 91%
    14:00 +17°C° 0.4 mm 5 mps 738 mmHg 91%
    15:00 +18°C° 0.4 mm 4 mps 738 mmHg 91%
    16:00 +18°C° 0.4 mm 4 mps 737 mmHg 92%
    17:00 +18°C° 0.4 mm 4 mps 737 mmHg 93%
    18:00 +18°C° 0.4 mm 3 mps 737 mmHg 93%
    19:00 +18°C° 0.1 mm 3 mps 737 mmHg 94%
    20:00 +18°C° 0.1 mm 3 mps 738 mmHg 95%
    21:00 +18°C° 0.1 mm 3 mps 738 mmHg 96%
    22:00 +17°C° 0 mm 3 mps 738 mmHg 96%
    23:00 +17°C° 0 mm 3 mps 738 mmHg 96%
    Show more